This demonstration page uses our WeatherBlox Daily Observations layout. Learn more.

Left ArrowRight Arrow

34.16533, -84.80231

Hourly Observations for March 24, 2017

Temp ( °F °C ) Dew Point ( °F °C ) Humidity (%) Winds ( mph kmh ) Pressure ( in mb ) Visibility ( mi km ) Precip ( " mm )
12:53 am 00:53 Cloudy 59 15 37 2.8 44 44 ESE 6 9 30.38 1029 10 16 0.00 0.00
1:53 am 01:53 Cloudy 59 15 36 2.2 42 42 VRB 5 7 30.36 1028 10 16 0.00 0.00
2:53 am 02:53 Cloudy 58 14.4 37 2.8 46 46 ESE 6 9 30.36 1028 10 16 0.00 0.00
3:53 am 03:53 Cloudy 58 14.4 39 3.9 50 50 E 6 9 30.36 1028 10 16 0.00 0.00
4:53 am 04:53 Cloudy 58 14.4 41 5 53 53 E 5 7 30.35 1028 10 16 0.00 0.00
5:53 am 05:53 Cloudy 58 14.4 42 5.6 56 56 E 5 7 30.35 1028 10 16 0.00 0.00
6:53 am 06:53 Cloudy 58 14.4 43 6.1 58 58 VRB 6 9 30.37 1028 10 16 0.00 0.00
7:53 am 07:53 Cloudy 57 13.9 44 6.7 62 62 SE 8 13 30.39 1029 10 16 0.00 0.00
8:53 am 08:53 Cloudy 57 13.9 45 7.2 64 64 E 7 11 30.40 1030 10 16 0.00 0.00
9:53 am 09:53 Cloudy 57 13.9 46 7.8 67 67 ESE 8 13 30.41 1030 10 16 0.00 0.00
10:53 am 10:53 Cloudy 59 15 48 8.9 67 67 ESE 7 11 30.41 1030 10 16 0.00 0.00
11:53 am 11:53 Mostly Cloudy 62 16.7 49 9.4 62 62 S 14 22 30.41 1030 10 16 0.00 0.00
12:53 pm 12:53 Cloudy 64 17.8 49 9.4 58 58 SE 10 17 30.38 1029 10 16 0.00 0.00
1:53 pm 13:53 Mostly Sunny 70 21.1 50 10 49 49 SE 9 15 30.34 1027 10 16 0.00 0.00
2:53 pm 14:53 Mostly Cloudy 71 21.7 49 9.4 46 46 undefined N/A 30.32 1027 10 16 0.00 0.00
3:53 pm 15:53 Mostly Cloudy 73 22.8 50 10 44 44 SSE 12 19 30.30 1026 10 16 0.00 0.00
4:53 pm 16:53 Cloudy 71 21.7 48 8.9 44 44 SE 10 17 30.27 1025 10 16 0.00 0.00
5:53 pm 17:53 Sunny 73 22.8 48 8.9 41 41 SSE 9 15 30.24 1024 10 16 0.00 0.00
6:53 pm 18:53 Mostly Cloudy 72 22.2 48 8.9 43 43 SSE 12 19 30.24 1024 10 16 0.00 0.00
7:53 pm 19:53 Cloudy 70 21.1 49 9.4 47 47 SE 3 6 30.25 1024 10 16 0.00 0.00
8:53 pm 20:53 Cloudy 69 20.6 49 9.4 49 49 SE 5 7 30.25 1024 10 16 0.00 0.00
9:53 pm 21:53 Cloudy 67 19.4 49 9.4 53 53 SE 3 6 30.26 1025 10 16 0.00 0.00
10:53 pm 22:53 Cloudy 67 19.4 49 9.4 53 53 SE 6 9 30.25 1024 10 16 0.00 0.00
11:53 pm 23:53 Mostly Clear 66 18.9 49 9.4 54 54 SE 6 9 30.23 1024 10 16 0.00 0.00

Powered by AerisWeather